Total_Precipitation_Accumulation
0.04 0.06 0.17 0.24 0.48 0.49 0.42 0.25 0.20 0.07 0.03 0.01 0.02 0.03 0.01 0.00 0.00 0.00 0.00 0.00 0.05 0.03 0.04 0.06 0.11 0.14 0.10 0.03 0.04 0.03 0.03 0.05 0.05
0.14 0.07 0.08 0.22 0.69 0.49 0.21 0.09 0.07 0.08 0.04 0.03 0.03 0.03 0.02 0.02 0.02 0.07 0.04 0.09 0.12 0.06 0.03 0.06 0.11 0.12 0.06 0.03 0.03 0.05 0.09 0.07 0.05
0.13 0.06 0.07 0.20 0.36 0.28 0.19 0.06 0.07 0.11 0.10 0.09 0.06 0.06 0.03 0.01 0.09 0.25 0.08 0.30 0.32 0.12 0.05 0.07 0.05 0.02 0.05 0.12 0.06 0.05 0.06 0.04 0.06
0.07 0.07 0.10 0.13 0.18 0.12 0.16 0.19 0.08 0.09 0.11 0.11 0.12 0.14 0.07 0.03 0.09 0.07 0.05 0.37 0.51 0.32 0.17 0.04 0.02 0.03 0.07 0.14 0.08 0.07 0.03 0.05 0.07
0.01 0.03 0.07 0.09 0.10 0.08 0.09 0.09 0.11 0.05 0.11 0.12 0.14 0.13 0.16 0.21 0.22 0.10 0.10 0.46 0.59 0.43 0.26 0.11 0.02 0.08 0.18 0.20 0.18 0.14 0.08 0.06 0.04
0.00 0.00 0.01 0.01 0.02 0.02 0.02 0.02 0.06 0.08 0.07 0.11 0.08 0.07 0.09 0.17 0.42 0.38 0.57 0.80 0.30 0.19 0.16 0.04 0.03 0.06 0.06 0.13 0.20 0.21 0.13 0.05 0.02
0.00 0.00 0.00 0.00 0.00 0.00 0.00 0.00 0.01 0.04 0.04 0.06 0.05 0.04 0.04 0.08 0.09 0.11 0.19 0.16 0.06 0.03 0.08 0.02 0.02 0.02 0.06 0.10 0.12 0.14 0.14 0.07 0.02
0.00 0.00 0.00 0.00 0.00 0.00 0.00 0.00 0.00 0.00 0.01 0.03 0.04 0.02 0.02 0.03 0.06 0.05 0.08 0.18 0.13 0.01 0.02 0.02 0.07 0.11 0.15 0.10 0.07 0.15 0.16 0.14 0.09
0.00 0.00 0.00 0.00 0.00 0.00 0.00 0.00 0.00 0.00 0.00 0.00 0.02 0.01 0.00 0.01 0.02 0.04 0.04 0.10 0.36 0.46 0.28 0.19 0.18 0.45 0.65 0.38 0.22 0.14 0.13 0.10 0.11
0.00 0.00 0.00 0.00 0.00 0.00 0.00 0.00 0.00 0.00 0.00 0.00 0.00 0.00 0.01 0.01 0.00 0.01 0.03 0.05 0.06 0.28 0.46 0.66 0.80 0.82 0.76 0.62 0.39 0.34 0.24 0.19 0.15
0.00 0.00 0.00 0.00 0.00 0.00 0.00 0.00 0.00 0.00 0.00 0.00 0.00 0.00 0.00 0.00 0.00 0.00 0.01 0.03 0.04 0.08 0.25 0.40 0.74 1.12 1.15 0.93 0.73 0.62 0.48 0.35 0.27
0.00 0.00 0.00 0.00 0.00 0.00 0.00 0.00 0.00 0.00 0.00 0.00 0.00 0.00 0.00 0.00 0.00 0.00 0.00 0.04 0.03 0.08 0.12 0.21 0.28 0.71 1.75 1.39 1.19 0.80 0.50 0.44 0.35
0.00 0.00 0.00 0.00 0.00 0.00 0.00 0.00 0.00 0.00 0.00 0.00 0.00 0.00 0.00 0.00 0.00 0.00 0.00 0.04 0.05 0.02 0.05 0.07 0.08 0.15 0.74 1.39 1.14 0.69 0.66 0.38 0.20
0.00 0.00 0.00 0.00 0.00 0.00 0.00 0.00 0.00 0.00 0.00 0.00 0.00 0.00 0.00 0.00 0.00 0.00 0.00 0.00 0.00 0.00 0.04 0.03 0.04 0.06 0.09 0.26 0.42 0.30 0.22 0.15 0.16
0.00 0.00 0.00 0.00 0.00 0.00 0.00 0.00 0.00 0.00 0.00 0.00 0.00 0.00 0.00 0.00 0.00 0.00 0.00 0.00 0.00 0.00 0.00 0.00 0.01 0.01 0.02 0.04 0.09 0.13 0.11 0.10 0.09
0.00 0.00 0.00 0.00 0.00 0.00 0.00 0.00 0.00 0.00 0.00 0.00 0.00 0.00 0.00 0.00 0.00 0.00 0.00 0.00 0.00 0.00 0.00 0.00 0.00 0.00 0.00 0.00 0.00 0.02 0.06 0.08 0.08
0.00 0.00 0.00 0.00 0.00 0.00 0.00 0.00 0.00 0.00 0.00 0.00 0.00 0.00 0.00 0.00 0.00 0.00 0.00 0.00 0.00 0.00 0.00 0.00 0.00 0.00 0.00 0.00 0.00 0.00 0.01 0.03 0.04
0.00 0.00 0.00 0.00 0.00 0.00 0.00 0.00 0.00 0.00 0.00 0.00 0.00 0.00 0.00 0.00 0.00 0.00 0.00 0.00 0.00 0.00 0.00 0.00 0.00 0.00 0.00 0.00 0.00 0.00 0.00 0.00 0.01
0.00 0.00 0.00 0.00 0.00 0.00 0.00 0.00 0.00 0.00 0.00 0.00 0.00 0.00 0.00 0.00 0.00 0.00 0.00 0.00 0.00 0.00 0.00 0.00 0.00 0.00 0.00 0.00 0.00 0.00 0.00 0.00 0.00
0.00 0.00 0.00 0.00 0.00 0.00 0.00 0.00 0.00 0.00 0.00 0.00 0.00 0.00 0.00 0.00 0.00 0.00 0.00 0.00 0.00 0.00 0.00 0.00 0.00 0.00 0.00 0.00 0.00 0.00 0.00 0.00 0.00